Total_Precipitation_Accumulation
0.08 0.13 0.19 0.20 0.15 0.14 0.13 0.13 0.16 0.21 0.33 0.44 0.55 0.66 0.75 0.81 0.78 0.78 0.74 0.75 0.86 0.99 1.14 1.14 1.06 0.97 0.99 1.21 1.43 1.66 1.95 2.08 2.15 2.27 2.46 2.73 2.96 2.96 2.89 2.81 2.72 2.91 2.90 2.82
0.08 0.12 0.15 0.13 0.13 0.12 0.10 0.11 0.13 0.20 0.34 0.47 0.59 0.66 0.61 0.65 0.65 0.72 0.81 0.88 1.03 1.18 1.31 1.41 1.43 1.40 1.42 1.55 1.81 2.11 2.42 2.55 2.69 2.79 2.91 3.05 3.15 3.21 3.27 3.23 3.16 3.11 3.01 3.06
0.15 0.16 0.18 0.16 0.16 0.15 0.14 0.15 0.17 0.25 0.35 0.50 0.65 0.65 0.73 0.74 0.72 0.83 0.92 1.05 1.19 1.29 1.37 1.51 1.56 1.62 1.80 1.94 2.16 2.41 2.59 2.70 2.81 2.92 3.10 3.26 3.33 3.40 3.27 3.24 3.21 3.12 3.09 3.14
0.23 0.29 0.33 0.22 0.25 0.27 0.29 0.32 0.35 0.38 0.45 0.55 0.67 0.70 0.83 0.88 0.86 0.87 0.99 1.17 1.22 1.31 1.41 1.52 1.65 1.81 1.98 2.11 2.23 2.55 2.77 2.86 2.93 2.98 3.07 3.27 3.48 3.41 3.26 3.24 3.20 3.17 3.11 3.00
0.37 0.37 0.39 0.39 0.34 0.35 0.47 0.59 0.53 0.67 0.75 0.73 0.78 0.85 0.91 0.94 1.13 1.13 1.08 1.19 1.26 1.36 1.44 1.57 1.64 1.69 1.69 1.82 2.03 2.27 2.50 2.69 2.70 2.86 3.05 3.15 3.18 3.22 3.32 3.31 3.12 2.97 2.86 2.85
0.53 0.56 0.56 0.57 0.53 0.42 0.49 0.88 0.86 0.93 1.03 0.98 1.03 1.30 1.22 0.96 0.97 1.13 1.15 1.17 1.29 1.45 1.51 1.48 1.50 1.55 1.63 1.79 2.01 2.23 2.44 2.65 2.83 2.98 3.15 3.19 3.21 3.36 3.44 3.42 3.38 3.35 3.22 3.17
0.60 0.67 0.66 0.56 0.50 0.53 0.91 1.22 1.18 1.25 1.27 1.19 1.24 1.33 1.25 1.08 1.02 1.03 1.08 1.12 1.22 1.41 1.57 1.57 1.54 1.73 1.93 2.07 2.22 2.38 2.50 2.60 2.74 2.94 3.18 3.44 3.63 3.56 3.58 3.57 3.48 3.32 3.21 3.07
0.84 1.05 1.17 0.85 0.77 1.02 1.23 0.97 1.02 1.23 1.46 1.47 1.41 1.33 1.26 1.17 1.11 1.05 0.99 1.06 1.27 1.42 1.57 1.70 1.78 1.95 2.16 2.19 2.23 2.44 2.65 2.75 2.82 3.03 3.11 3.26 3.54 3.57 3.51 3.51 3.42 3.34 3.35 3.34
1.20 1.37 1.24 1.04 1.06 1.01 1.09 1.26 1.32 1.41 1.64 1.68 1.54 1.42 1.44 1.38 1.28 1.19 1.11 1.13 1.27 1.43 1.59 1.69 1.88 2.06 2.22 2.30 2.37 2.48 2.63 2.80 3.00 3.11 3.18 3.32 3.49 3.56 3.56 3.49 3.34 3.22 3.14 2.97
1.42 1.55 1.36 1.19 1.15 1.11 1.16 1.35 1.44 1.43 1.47 1.51 1.50 1.46 1.61 1.65 1.50 1.47 1.43 1.38 1.41 1.50 1.63 1.73 1.80 2.01 2.20 2.33 2.38 2.50 2.59 2.67 2.84 2.99 3.12 3.29 3.32 3.19 3.05 2.92 2.86 2.85 2.71 2.61
1.76 1.92 1.82 1.60 1.45 1.34 1.36 1.32 1.40 1.35 1.38 1.40 1.46 1.48 1.56 1.71 1.73 1.67 1.57 1.48 1.52 1.62 1.74 1.79 1.81 1.89 2.14 2.35 2.44 2.49 2.62 2.69 2.70 2.70 2.78 2.96 3.03 2.99 2.85 2.67 2.53 2.50 2.40 2.43
2.27 2.19 2.25 2.07 1.71 1.50 1.56 1.54 1.50 1.46 1.53 1.58 1.57 1.56 1.60 1.75 1.80 1.77 1.70 1.65 1.67 1.72 1.78 1.81 1.90 2.00 2.10 2.40 2.67 2.74 2.72 2.58 2.50 2.42 2.40 2.49 2.52 2.55 2.67 2.54 2.54 2.40 2.28 2.21
2.01 2.16 2.16 1.96 1.75 1.77 1.75 1.74 1.72 1.77 1.77 1.73 1.80 1.81 1.75 1.75 1.78 1.78 1.77 1.79 1.77 1.80 1.88 1.94 2.04 2.13 2.13 2.24 2.54 2.74 2.67 2.49 2.38 2.30 2.29 2.25 2.24 2.28 2.41 2.48 2.43 2.33 2.30 2.15
1.78 1.94 2.13 1.96 1.90 1.85 1.80 1.87 1.89 1.98 2.03 1.92 1.94 1.97 1.91 1.85 1.79 1.81 1.90 1.82 1.67 1.69 1.81 1.89 1.97 2.10 2.18 2.24 2.36 2.47 2.52 2.56 2.43 2.29 2.31 2.34 2.34 2.31 2.32 2.36 2.34 2.24 2.24 2.20
1.73 1.74 1.90 1.83 1.78 1.85 1.81 1.81 1.92 2.04 2.15 2.13 2.12 2.06 1.92 1.92 1.91 1.85 1.75 1.66 1.64 1.69 1.70 1.76 1.82 1.85 1.93 2.14 2.30 2.37 2.41 2.45 2.48 2.45 2.41 2.46 2.46 2.35 2.26 2.22 2.20 2.10 2.01 2.06
1.70 1.58 1.64 1.87 1.91 1.93 2.04 2.07 2.03 1.99 1.93 1.94 1.94 1.93 1.92 1.91 1.87 1.78 1.66 1.64 1.75 1.80 1.77 1.72 1.72 1.74 1.76 1.91 2.18 2.37 2.38 2.53 2.44 2.44 2.41 2.37 2.39 2.38 2.34 2.34 2.26 2.16 2.06 2.02
1.80 1.67 1.67 1.80 1.85 1.97 2.07 2.01 1.92 1.86 1.83 1.82 1.81 1.76 1.78 1.89 1.92 1.91 1.88 1.77 1.76 1.85 1.86 1.87 1.88 1.82 1.81 1.98 2.15 2.27 2.20 2.31 2.36 2.14 2.15 2.27 2.26 2.29 2.32 2.36 2.33 2.23 2.10 2.07
1.87 1.67 1.71 1.83 1.83 1.94 1.90 1.81 1.75 1.65 1.65 1.74 1.86 1.88 1.90 1.94 1.94 2.01 2.05 1.91 1.74 1.74 1.77 1.84 1.82 1.80 1.82 1.95 2.09 2.21 2.19 2.07 2.03 2.03 2.16 2.25 2.33 2.35 2.33 2.26 2.23 2.21 2.16 2.13
1.78 1.71 1.66 1.65 1.69 1.81 1.77 1.73 1.71 1.72 1.69 1.73 1.87 1.98 2.05 2.04 1.97 1.89 1.94 2.05 2.05 1.96 1.78 1.70 1.78 1.64 1.67 1.84 1.91 1.99 2.03 2.00 1.94 1.96 2.12 2.29 2.35 2.34 2.34 2.29 2.25 2.26 2.23 2.15
1.89 1.89 1.81 1.72 1.75 1.86 1.92 1.79 1.71 1.74 1.70 1.71 1.86 2.02 2.05 1.97 1.90 1.88 2.02 2.11 2.07 1.86 1.60 1.56 1.55 1.55 1.52 1.61 1.73 1.69 1.81 1.92 1.95 1.92 1.99 2.05 2.08 2.09 2.08 2.04 2.05 2.06 2.10 2.15
2.13 2.02 1.91 1.85 1.78 1.76 1.89 1.84 1.84 1.81 1.67 1.65 1.80 1.88 1.91 1.84 1.75 1.81 1.99 2.04 1.91 1.67 1.48 1.54 1.51 1.54 1.43 1.50 1.56 1.51 1.66 1.82 1.91 1.88 1.85 1.89 1.87 1.79 1.78 1.83 1.94 2.04 2.08 2.10
2.19 1.99 1.78 1.66 1.71 1.78 1.78 1.77 1.75 1.77 1.83 1.88 1.85 1.80 1.83 1.86 1.77 1.81 1.83 1.87 1.72 1.68 1.42 1.37 1.43 1.50 1.49 1.42 1.38 1.53 1.66 1.76 1.79 1.79 1.78 1.82 1.87 1.84 1.78 1.81 1.91 1.94 1.96 1.96
2.18 2.01 1.89 1.79 1.78 1.86 1.87 1.82 1.80 1.82 1.88 1.97 2.02 1.99 1.97 1.91 1.80 1.87 1.93 1.73 1.51 1.51 1.40 1.39 1.43 1.45 1.43 1.35 1.41 1.51 1.55 1.57 1.56 1.57 1.58 1.68 1.83 1.90 1.84 1.75 1.69 1.70 1.76 1.78
2.26 2.16 2.05 1.86 1.79 1.91 2.11 2.06 1.95 1.90 1.83 1.87 1.90 1.93 1.94 1.95 1.90 1.81 1.90 1.91 1.69 1.48 1.40 1.44 1.39 1.31 1.35 1.36 1.45 1.51 1.54 1.54 1.55 1.58 1.61 1.68 1.82 1.93 1.90 1.77 1.60 1.52 1.57 1.70
2.27 2.19 2.07 1.97 1.91 1.91 2.02 2.01 1.93 1.81 1.69 1.75 1.69 1.70 1.77 1.87 1.95 1.95 1.94 1.88 1.82 1.65 1.47 1.43 1.41 1.35 1.28 1.36 1.49 1.52 1.49 1.50 1.54 1.62 1.64 1.67 1.71 1.76 1.85 1.81 1.65 1.53 1.47 1.54
2.39 2.20 2.00 1.94 1.91 1.86 1.89 1.92 1.99 2.01 1.94 1.94 1.81 1.69 1.70 1.81 1.91 1.96 1.93 1.83 1.67 1.59 1.47 1.43 1.38 1.35 1.27 1.34 1.42 1.47 1.49 1.49 1.49 1.45 1.37 1.37 1.37 1.36 1.40 1.46 1.49 1.50 1.49 1.45
2.21 2.10 2.00 1.88 1.77 1.71 1.88 1.95 1.98 2.07 2.07 1.95 1.83 1.68 1.69 1.81 1.91 1.89 1.76 1.73 1.64 1.52 1.39 1.26 1.17 1.19 1.26 1.27 1.26 1.28 1.31 1.29 1.28 1.35 1.44 1.48 1.32 1.16 1.13 1.20 1.27 1.33 1.37 1.33